Regional Weather Roundup
Issued by NWS

Home | Current Version | Previous Version | Text Only | Print | Product List | Glossary Off
Versions: 1 2 3 4 5 6 7 8 9 10 11 12 13 14 15 16 17 18 19 20 21 22 23 24 25 26 27 28 29 30 31 32 33 34 35 36 37 38 39 40 41 42 43 44 45 46 47 48 49 50

000
ASUS43 KLOT 211108
RWRIL

ILLINOIS REGIONAL WEATHER ROUNDUP
NATIONAL WEATHER SERVICE CHICAGO/ROMEOVILLE IL
500 AM CST TUE FEB 21 2017

NOTE: "FAIR" INDICATES FEW OR NO CLOUDS BELOW 12,000 FEET WITH NO
SIGNIFICANT WEATHER AND/OR OBSTRUCTIONS TO VISIBILITY.

* THESE STATIONS ARE NOT UNDER NWS QUALITY CONTROL. THEY ALSO MAY NOT
  REPORT WEATHER SUCH AS PRECIPITATION OR FOG.

ILZ001-002-007-009-015-016-024-211200-
NORTHWEST ILLINOIS

CITY           SKY/WX    TMP DP  RH WIND       PRES   REMARKS
MOLINE         CLOUDY    54  49  83 NW8       29.93R
STERLING*      CLOUDY    55  54  96 SW5       29.91S
SAVANNA*       MOCLDY    51  48  91 NW8       29.92R
$$

ILZ003-004-008-010-011-017-018-211200-
NORTH CENTRAL ILLINOIS

CITY           SKY/WX    TMP DP  RH WIND       PRES   REMARKS
ROCKFORD       CLOUDY    55  53  93 SW5       29.92R
FREEPORT*      CLOUDY    52  52  99 W6        29.93R FOG
ROCHELLE*      CLOUDY    53  53  99 SW8       29.92R
DE KALB*       DRIZZLE   53  53  98 SW7       29.91R
PERU*          LGT RAIN  54  53  97 S7        29.90F
$$

ILZ005-006-012>014-019>023-211200-
NORTHEAST ILLINOIS

CITY           SKY/WX    TMP DP  RH WIND       PRES   REMARKS
CHICAGO-OHARE  LGT RAIN  55  51  86 S8        29.90S
CHICAGO-MIDWAY LGT RAIN  54  50  86 S7        29.91S
AURORA         CLOUDY    54  51  90 S10       29.89F FOG
LANSING*       CLOUDY    54  49  83 S5        29.94S
JOLIET*        CLOUDY    54  53  98 CALM      29.91F FOG
WAUKEGAN       CLOUDY    54  51  90 SW13      29.86S
DUPAGE AIRPORT CLOUDY    53  50  89 S8        29.88F FOG
KANKAKEE*      LGT RAIN  53  48  82 CALM      29.95R
WHEELING       CLOUDY    54  50  86 S10       29.90S
MORRIS*        DRIZZLE   52  50  95 CALM      29.90F
ROMEOVILLE*    DRIZZLE   51  51 100 S6        29.91F
NORTHERLY ISL    N/A     54  50  86 SW5         N/A
$$

LMZ740>746-211200-
SOUTHERN LAKE MICHIGAN

STATION/POSITION SKY/WX   TEMP    WIND        PRES    VSBY  WAVE
                          AIR SEA DIR/SP/G                  HT/PER
                          (F)     (DEG/KT/KT) (MB)    (MI)  (FT/S)
HARRISON CRIB              55     190/ 16/ 17   N/A
BURNHAM HARBOR             54     190/  6/ 10   N/A
CALUMET HARBOR             54     210/  6/  8 1012.9R
BURNS HARBOR               56     190/ 10/ 13 1014.6R
MICHIGAN CITY              56     170/ 10/ 12   N/A
$$

ILZ025>027-034>036-040-047-049-050-058-095>099-211200-
WEST-CENTRAL ILLINOIS

CITY           SKY/WX    TMP DP  RH WIND       PRES   REMARKS
QUINCY         FOG       58  58 100 CALM      29.92R VSB 1/4
GALESBURG*     CLOUDY    55  55 100 S3        29.92R FOG
MACOMB*        LGT RAIN  55  55 100 S5        29.95R VSB 1/2
JACKSONVILLE*  LGT RAIN  56  56  99 E3        29.94R VSB 1
PITTSFIELD*    LGT RAIN  57  57  99 E3        29.94R
$$

ILZ028>032-037-038-041>044-048-051>054-059>061-211200-
CENTRAL ILLINOIS

CITY           SKY/WX    TMP DP  RH WIND       PRES   REMARKS
PONTIAC        LGT RAIN  55  54  98 CALM      29.93F
BLOOMINGTON    RAIN      55  54  96 W5        29.96R
DECATUR        MOCLDY    56  50  80 CALM      29.94S
PEORIA         LGT RAIN  55  55 100 SE6       29.93S FOG
LACON*         LGT RAIN  54  54 100 SE7       29.89F
LINCOLN*       RAIN      57  57 100 CALM      29.95R
SPRINGFIELD    LGT RAIN  57  56  96 SE5       29.94S FOG
TAYLORVILLE    LGT RAIN  55  52  92 N6        29.93F
$$

ILZ033-039-045-046-055>057-062-063-211200-
EAST-CENTRAL ILLINOIS

CITY           SKY/WX    TMP DP  RH WIND       PRES   REMARKS
CHAMPAIGN      CLOUDY    53  47  79 W5        29.95R
RANTOUL*       CLOUDY    54  49  85 CALM      29.96R
MATTOON        CLOUDY    56  49  77 CALM      29.92F
PARIS*         MOCLDY    54  48  82 SE3       29.97R
$$

ILZ079-100>102-211200-
SOUTHWEST ILLINOIS

CITY           SKY/WX    TMP DP  RH WIND       PRES   REMARKS
ALTON          DRIZZLE   56  56  98 CALM      29.93R
BELLEVILLE     CLOUDY    55  55 100 CALM      29.92R
CAHOKIA*       LGT RAIN  58  56  93 CALM      29.92R FOG
SPARTA*        DRIZZLE   55  53  92 CALM      29.94F
$$

ILZ064>066-069>071-074>076-080>082-084>086-088>090-092>094-211200-
SOUTH-CENTRAL ILLINOIS

CITY           SKY/WX    TMP DP  RH WIND       PRES   REMARKS
CARBONDALE     MOCLDY    56  51  84 N3        29.93S
CAIRO*         CLOUDY    57  50  76 CALM      29.94R
EFFINGHAM*     CLOUDY    54  50  87 SE5       29.97R
MARION         CLOUDY    59  46  63 CALM      29.95R
MT. VERNON     CLOUDY    54  49  83 NE3       29.94S
CENTRALIA*     CLOUDY    56  52  86 CALM      29.95R
SALEM*         MOCLDY    58  51  76 CALM      29.95R
METROPOLIS*    CLOUDY    57  48  71 CALM      29.94S
$$

ILZ067-068-072-073-078-083-087-091-211200-
SOUTHEAST ILLINOIS

CITY           SKY/WX    TMP DP  RH WIND       PRES   REMARKS
LAWRENCEVILLE  CLOUDY    51  45  79 SE3       29.96S
FLORA*         CLOUDY    55  50  82 CALM      29.96R
FAIRFIELD*     CLOUDY    57  49  75 CALM      29.94R
HARRISBURG*    CLOUDY    55  50  83 N6        29.93F
ROBINSON*      CLOUDY    48  45  90 CALM      29.96S
CARMI*           N/A     53  49  86 SE5       29.95R FOG
$$

ABBREVIATIONS USED IN REMARKS
   TC - TEMPERATURE IN CELSIUS
  WCI - WIND CHILL INDEX
   HX - HEAT INDEX
  VSB - VISIBILITY
$$





USA.gov is the U.S. government's official web portal to all federal, state and local government web resources and services.